GLD1043 SBIL-SBKG

Flight info

Callsign GLD1043
Flight time 1h 19m
Altitude 3500
Route DCT 1449S03859W/N0448FL350 IFR VUREK UZ73 OPMUD DCT MUDAR
Aircraft B738/M-SDE2E3FGHIRWXY/LB1

Departure

Time 2026-04-16 21:51
Airport Bahia - Jorge Amado Airport (SBIL)

Arrival

Time 2026-04-16 23:10
Airport Presidente João Suassuna Airport (SBKG)
Time Latitude Longitude Altitude Speed Heading
2026-04-16 21:31 -14.81445 -39.03207 19 ft 0 kts 309°
2026-04-16 21:41 -14.81443 -39.03209 18 ft 4 kts 329°
2026-04-16 21:42 -14.81465 -39.03196 21 ft 4 kts 319°
2026-04-16 21:42 -14.81481 -39.03175 18 ft 4 kts 282°
2026-04-16 21:42 -14.81482 -39.03160 18 ft 1 kts 268°
2026-04-16 21:42 -14.81482 -39.03158 17 ft 1 kts 268°
2026-04-16 21:46 -14.81482 -39.03160 18 ft 1 kts 268°
2026-04-16 21:46 -14.81483 -39.03187 19 ft 6 kts 268°
2026-04-16 21:46 -14.81488 -39.03231 19 ft 6 kts 245°
2026-04-16 21:47 -14.81522 -39.03246 18 ft 7 kts 177°
2026-04-16 21:47 -14.81574 -39.03250 17 ft 8 kts 212°
2026-04-16 21:47 -14.81591 -39.03309 17 ft 9 kts 266°
2026-04-16 21:47 -14.81594 -39.03380 18 ft 10 kts 268°
2026-04-16 21:48 -14.81597 -39.03458 19 ft 11 kts 268°
2026-04-16 21:48 -14.81599 -39.03543 20 ft 12 kts 268°
2026-04-16 21:48 -14.81601 -39.03636 20 ft 14 kts 268°
2026-04-16 21:48 -14.81604 -39.03741 20 ft 15 kts 268°
2026-04-16 21:49 -14.81607 -39.03853 21 ft 15 kts 269°
2026-04-16 21:49 -14.81616 -39.03952 21 ft 13 kts 257°
2026-04-16 21:49 -14.81595 -39.04008 22 ft 7 kts 301°
2026-04-16 21:49 -14.81603 -39.04032 21 ft 1 kts 188°
2026-04-16 21:50 -14.81612 -39.04024 21 ft 3 kts 123°
2026-04-16 21:50 -14.81611 -39.04016 21 ft 0 kts 88°
2026-04-16 21:50 -14.81610 -39.03968 21 ft 36 kts 88°
2026-04-16 21:51 -14.81593 -39.03358 19 ft 130 kts 88°
2026-04-16 21:51 -14.81544 -39.02224 362 ft 175 kts 92°
2026-04-16 21:51 -14.81498 -39.01014 1571 ft 167 kts 90°
2026-04-16 21:51 -14.81440 -38.99671 2037 ft 209 kts 91°
2026-04-16 21:52 -14.81388 -38.98055 2308 ft 236 kts 90°
2026-04-16 21:52 -14.81338 -38.96267 2659 ft 258 kts 91°
2026-04-16 21:52 -14.81286 -38.94384 3276 ft 263 kts 90°
2026-04-16 21:52 -14.80895 -38.92515 3428 ft 273 kts 64°
2026-04-16 21:53 -14.79601 -38.91101 3473 ft 273 kts 34°
2026-04-16 21:53 -14.77915 -38.90207 3555 ft 277 kts 25°
2026-04-16 21:53 -14.76131 -38.89418 3623 ft 280 kts 24°
2026-04-16 21:53 -14.74313 -38.88640 4288 ft 283 kts 23°
2026-04-16 21:54 -14.72488 -38.87859 5290 ft 283 kts 23°
2026-04-16 21:54 -14.70656 -38.87071 6207 ft 287 kts 22°
2026-04-16 21:54 -14.68800 -38.86266 7071 ft 289 kts 22°
2026-04-16 21:54 -14.66945 -38.85456 8021 ft 289 kts 22°
2026-04-16 21:55 -14.65101 -38.84648 8862 ft 294 kts 21°
2026-04-16 21:55 -14.63183 -38.83806 9763 ft 297 kts 21°
2026-04-16 21:55 -14.61292 -38.82974 10457 ft 306 kts 21°
2026-04-16 21:55 -14.59252 -38.82077 10646 ft 332 kts 21°
2026-04-16 21:56 -14.57063 -38.81113 11023 ft 348 kts 21°
2026-04-16 21:56 -14.54813 -38.80120 11658 ft 354 kts 22°
2026-04-16 21:56 -14.52530 -38.79111 12327 ft 359 kts 21°
2026-04-16 21:56 -14.50221 -38.78090 12986 ft 363 kts 22°
2026-04-16 21:57 -14.47884 -38.77058 13662 ft 367 kts 22°
2026-04-16 21:57 -14.45517 -38.76012 14205 ft 372 kts 22°
2026-04-16 21:57 -14.43123 -38.74955 14794 ft 374 kts 22°
2026-04-16 21:57 -14.40747 -38.73906 15390 ft 377 kts 22°
2026-04-16 21:58 -14.38323 -38.72836 15941 ft 381 kts 22°
2026-04-16 21:58 -14.35874 -38.71756 16525 ft 384 kts 21°
2026-04-16 21:58 -14.33401 -38.70665 17084 ft 387 kts 21°
2026-04-16 21:58 -14.30913 -38.69568 17643 ft 391 kts 22°
2026-04-16 21:59 -14.28401 -38.68461 18195 ft 394 kts 21°
2026-04-16 21:59 -14.25868 -38.67345 18659 ft 398 kts 22°
2026-04-16 21:59 -14.23308 -38.66217 19155 ft 400 kts 22°
2026-04-16 21:59 -14.20766 -38.65097 19603 ft 404 kts 22°
2026-04-16 22:00 -14.18171 -38.63954 20056 ft 408 kts 22°
2026-04-16 22:00 -14.15553 -38.62801 20538 ft 410 kts 22°
2026-04-16 22:00 -14.12913 -38.61639 20990 ft 414 kts 22°
2026-04-16 22:00 -14.10259 -38.60471 21492 ft 416 kts 22°
2026-04-16 22:01 -14.07583 -38.59294 21916 ft 420 kts 22°
2026-04-16 22:01 -14.04886 -38.58107 22397 ft 422 kts 23°
2026-04-16 22:01 -14.02178 -38.56917 22839 ft 425 kts 23°
2026-04-16 22:01 -13.99439 -38.55712 23279 ft 428 kts 23°
2026-04-16 22:02 -13.96700 -38.54508 23719 ft 429 kts 24°
2026-04-16 22:02 -13.93972 -38.53309 24057 ft 432 kts 23°
2026-04-16 22:02 -13.91203 -38.52093 24494 ft 432 kts 23°
2026-04-16 22:02 -13.88398 -38.50946 24840 ft 435 kts 18°
2026-04-16 22:03 -13.85461 -38.50072 25224 ft 436 kts 15°
2026-04-16 22:03 -13.82505 -38.49293 25577 ft 439 kts 14°
2026-04-16 22:03 -13.79568 -38.48546 25915 ft 441 kts 14°
2026-04-16 22:03 -13.76588 -38.47785 26297 ft 442 kts 14°
2026-04-16 22:04 -13.73591 -38.47006 26691 ft 443 kts 15°
2026-04-16 22:04 -13.70596 -38.46214 27055 ft 444 kts 15°
2026-04-16 22:04 -13.67600 -38.45413 27375 ft 446 kts 15°
2026-04-16 22:04 -13.64584 -38.44601 27691 ft 448 kts 15°
2026-04-16 22:05 -13.61557 -38.43784 28014 ft 450 kts 15°
2026-04-16 22:05 -13.58564 -38.42975 28324 ft 452 kts 15°
2026-04-16 22:05 -13.55508 -38.42149 28635 ft 454 kts 15°
2026-04-16 22:05 -13.52446 -38.41323 28910 ft 456 kts 15°
2026-04-16 22:06 -13.49370 -38.40493 29202 ft 458 kts 15°
2026-04-16 22:06 -13.43168 -38.38821 29875 ft 459 kts 15°
2026-04-16 22:06 -13.40086 -38.37991 30272 ft 457 kts 15°
2026-04-16 22:07 -13.38047 -38.37442 30521 ft 456 kts 15°
2026-04-16 22:07 -13.34977 -38.36615 30855 ft 456 kts 15°
2026-04-16 22:07 -13.30908 -38.35520 31236 ft 457 kts 16°
2026-04-16 22:07 -13.27837 -38.34693 31573 ft 456 kts 16°
2026-04-16 22:08 -13.24773 -38.33869 31936 ft 455 kts 16°
2026-04-16 22:08 -13.22701 -38.33312 32179 ft 454 kts 15°
2026-04-16 22:08 -13.19682 -38.32499 32501 ft 454 kts 16°
2026-04-16 22:08 -13.16618 -38.31675 32847 ft 453 kts 16°
2026-04-16 22:09 -13.12570 -38.30587 33336 ft 452 kts 16°
2026-04-16 22:09 -13.10513 -38.30034 33573 ft 451 kts 16°
2026-04-16 22:09 -13.07473 -38.29218 33898 ft 451 kts 16°
2026-04-16 22:09 -13.04434 -38.28405 34183 ft 451 kts 16°
2026-04-16 22:10 -13.01435 -38.27603 34467 ft 450 kts 16°
2026-04-16 22:10 -12.98403 -38.26794 34742 ft 449 kts 16°
2026-04-16 22:10 -12.95370 -38.25984 34921 ft 451 kts 16°
2026-04-16 22:10 -12.92318 -38.25168 34904 ft 454 kts 16°
2026-04-16 22:11 -12.86198 -38.23533 34903 ft 450 kts 16°
2026-04-16 22:11 -12.80213 -38.21935 34916 ft 446 kts 16°
2026-04-16 22:12 -12.74184 -38.20325 34924 ft 447 kts 16°
2026-04-16 22:12 -12.68155 -38.18716 34924 ft 448 kts 16°
2026-04-16 22:13 -12.62161 -38.17118 34933 ft 448 kts 16°
2026-04-16 22:13 -12.56115 -38.15506 34932 ft 449 kts 16°
2026-04-16 22:14 -12.50066 -38.13895 34934 ft 449 kts 16°
2026-04-16 22:14 -12.44008 -38.12281 34935 ft 449 kts 16°
2026-04-16 22:15 -12.37952 -38.10669 34937 ft 450 kts 16°
2026-04-16 22:15 -12.31926 -38.09065 34934 ft 449 kts 16°
2026-04-16 22:16 -12.25856 -38.07451 34934 ft 449 kts 16°
2026-04-16 22:16 -12.19842 -38.05853 34936 ft 449 kts 16°
2026-04-16 22:17 -12.13793 -38.04245 34938 ft 449 kts 16°
2026-04-16 22:17 -12.07745 -38.02637 34938 ft 448 kts 16°
2026-04-16 22:18 -12.01707 -38.01034 34936 ft 448 kts 16°
2026-04-16 22:18 -11.95674 -37.99432 34935 ft 448 kts 16°
2026-04-16 22:19 -11.89640 -37.97830 34938 ft 447 kts 16°
2026-04-16 22:19 -11.83646 -37.96240 34930 ft 447 kts 16°
2026-04-16 22:20 -11.77606 -37.94639 34936 ft 448 kts 16°
2026-04-16 22:20 -11.71590 -37.93044 34936 ft 448 kts 16°
2026-04-16 22:21 -11.65540 -37.91441 34939 ft 449 kts 16°
2026-04-16 22:21 -11.59487 -37.89838 34938 ft 449 kts 16°
2026-04-16 22:22 -11.53424 -37.88233 34941 ft 450 kts 15°
2026-04-16 22:22 -11.47354 -37.86627 34940 ft 450 kts 15°
2026-04-16 22:23 -11.41327 -37.85032 34938 ft 450 kts 15°
2026-04-16 22:23 -11.35255 -37.83425 34940 ft 450 kts 15°
2026-04-16 22:24 -11.29181 -37.81817 34940 ft 450 kts 15°
2026-04-16 22:24 -11.23156 -37.80223 34938 ft 449 kts 15°
2026-04-16 22:25 -11.17096 -37.78620 34941 ft 448 kts 15°
2026-04-16 22:25 -11.11087 -37.77031 34940 ft 447 kts 15°
2026-04-16 22:26 -11.05068 -37.75440 34941 ft 447 kts 15°
2026-04-16 22:26 -10.99041 -37.73848 34943 ft 446 kts 15°
2026-04-16 22:27 -10.93022 -37.72260 34943 ft 446 kts 15°
2026-04-16 22:27 -10.87058 -37.70685 34941 ft 445 kts 15°
2026-04-16 22:28 -10.81055 -37.69102 34943 ft 445 kts 14°
2026-04-16 22:28 -10.75038 -37.67515 34943 ft 445 kts 14°
2026-04-16 22:29 -10.69084 -37.65944 34945 ft 445 kts 13°
2026-04-16 22:29 -10.63091 -37.64365 34941 ft 445 kts 13°
2026-04-16 22:30 -10.57087 -37.62783 34944 ft 444 kts 13°
2026-04-16 22:30 -10.51117 -37.61211 34943 ft 444 kts 13°
2026-04-16 22:31 -10.45133 -37.59637 34942 ft 444 kts 13°
2026-04-16 22:31 -10.39140 -37.58062 34942 ft 444 kts 13°
2026-04-16 22:32 -10.33197 -37.56500 34939 ft 444 kts 13°
2026-04-16 22:32 -10.27214 -37.54928 34941 ft 444 kts 13°
2026-04-16 22:33 -10.21216 -37.53352 34940 ft 444 kts 13°
2026-04-16 22:33 -10.15232 -37.51780 34929 ft 444 kts 12°
2026-04-16 22:34 -10.09269 -37.50215 34940 ft 445 kts 12°
2026-04-16 22:34 -10.03261 -37.48639 34940 ft 446 kts 12°
2026-04-16 22:35 -9.97241 -37.47060 34939 ft 447 kts 12°
2026-04-16 22:35 -9.91198 -37.45475 34930 ft 448 kts 12°
2026-04-16 22:36 -9.85200 -37.43902 34929 ft 448 kts 11°
2026-04-16 22:36 -9.79157 -37.42319 34936 ft 448 kts 11°
2026-04-16 22:37 -9.73115 -37.40736 34939 ft 447 kts 11°
2026-04-16 22:37 -9.67109 -37.39164 34938 ft 447 kts 11°
2026-04-16 22:38 -9.61068 -37.37583 34932 ft 447 kts 11°
2026-04-16 22:38 -9.55060 -37.36011 34932 ft 447 kts 11°
2026-04-16 22:39 -9.49035 -37.34435 34943 ft 447 kts 11°
2026-04-16 22:39 -9.43018 -37.32862 34940 ft 447 kts 11°
2026-04-16 22:40 -9.36987 -37.31286 34941 ft 447 kts 11°
2026-04-16 22:40 -9.30963 -37.29712 34938 ft 446 kts 11°
2026-04-16 22:41 -9.24937 -37.28138 34942 ft 446 kts 11°
2026-04-16 22:41 -9.18961 -37.26578 34949 ft 446 kts 11°
2026-04-16 22:42 -9.12944 -37.25008 34947 ft 446 kts 11°
2026-04-16 22:42 -9.06925 -37.23437 34948 ft 446 kts 11°
2026-04-16 22:43 -9.00921 -37.21870 34948 ft 446 kts 11°
2026-04-16 22:43 -8.95216 -37.19372 34489 ft 450 kts 30°
2026-04-16 22:44 -8.92731 -37.17495 34145 ft 448 kts 35°
2026-04-16 22:44 -8.90303 -37.15520 33707 ft 446 kts 35°
2026-04-16 22:44 -8.87903 -37.13546 33281 ft 442 kts 36°
2026-04-16 22:44 -8.85519 -37.11590 32871 ft 439 kts 36°
2026-04-16 22:45 -8.83179 -37.09683 32472 ft 436 kts 36°
2026-04-16 22:45 -8.80823 -37.07778 32081 ft 432 kts 36°
2026-04-16 22:45 -8.78473 -37.05887 31690 ft 429 kts 36°
2026-04-16 22:45 -8.76142 -37.04016 31307 ft 426 kts 36°
2026-04-16 22:46 -8.73825 -37.02161 30924 ft 423 kts 36°
2026-04-16 22:46 -8.71524 -37.00319 30542 ft 420 kts 36°
2026-04-16 22:46 -8.69241 -36.98492 30161 ft 418 kts 36°
2026-04-16 22:46 -8.66989 -36.96690 29727 ft 415 kts 37°
2026-04-16 22:47 -8.64722 -36.94876 29300 ft 412 kts 37°
2026-04-16 22:47 -8.62486 -36.93086 28886 ft 409 kts 37°
2026-04-16 22:47 -8.60269 -36.91311 28484 ft 405 kts 37°
2026-04-16 22:47 -8.58071 -36.89552 28089 ft 402 kts 37°
2026-04-16 22:48 -8.55887 -36.87805 27700 ft 398 kts 37°
2026-04-16 22:48 -8.53723 -36.86073 27308 ft 395 kts 37°
2026-04-16 22:48 -8.51569 -36.84350 26926 ft 393 kts 38°
2026-04-16 22:48 -8.49427 -36.82638 26537 ft 390 kts 38°
2026-04-16 22:49 -8.47329 -36.80960 26163 ft 388 kts 38°
2026-04-16 22:49 -8.45214 -36.79269 25787 ft 386 kts 38°
2026-04-16 22:49 -8.43101 -36.77580 25390 ft 385 kts 39°
2026-04-16 22:49 -8.41005 -36.75905 25015 ft 383 kts 39°
2026-04-16 22:50 -8.38918 -36.74237 24623 ft 382 kts 39°
2026-04-16 22:50 -8.36830 -36.72568 24237 ft 381 kts 39°
2026-04-16 22:50 -8.34754 -36.70909 23858 ft 380 kts 39°
2026-04-16 22:50 -8.32680 -36.69252 23463 ft 379 kts 39°
2026-04-16 22:51 -8.30641 -36.67622 23032 ft 377 kts 39°
2026-04-16 22:51 -8.28583 -36.65978 22645 ft 375 kts 39°
2026-04-16 22:51 -8.26547 -36.64352 22260 ft 372 kts 39°
2026-04-16 22:51 -8.24528 -36.62739 21883 ft 369 kts 39°
2026-04-16 22:52 -8.22518 -36.61135 21518 ft 366 kts 39°
2026-04-16 22:52 -8.20465 -36.59612 21145 ft 365 kts 33°
2026-04-16 22:52 -8.18251 -36.58374 20804 ft 362 kts 29°
2026-04-16 22:52 -8.16020 -36.57216 20446 ft 360 kts 28°
2026-04-16 22:53 -8.13795 -36.56080 20094 ft 357 kts 28°
2026-04-16 22:53 -8.11585 -36.54950 19735 ft 355 kts 28°
2026-04-16 22:53 -8.09382 -36.53816 19359 ft 352 kts 29°
2026-04-16 22:53 -8.07254 -36.52713 19005 ft 346 kts 28°
2026-04-16 22:54 -8.05124 -36.51603 18652 ft 344 kts 29°
2026-04-16 22:54 -8.02998 -36.50491 18295 ft 343 kts 29°
2026-04-16 22:54 -8.00877 -36.49380 17893 ft 341 kts 29°
2026-04-16 22:54 -7.98798 -36.48290 17514 ft 334 kts 29°
2026-04-16 22:55 -7.97438 -36.47577 17292 ft 332 kts 29°
2026-04-16 22:55 -7.95393 -36.46504 16944 ft 330 kts 29°
2026-04-16 22:55 -7.93359 -36.45436 16587 ft 328 kts 29°
2026-04-16 22:55 -7.91343 -36.44378 16258 ft 326 kts 29°
2026-04-16 22:56 -7.89339 -36.43327 15918 ft 324 kts 29°
2026-04-16 22:56 -7.87345 -36.42280 15572 ft 322 kts 29°
2026-04-16 22:56 -7.85362 -36.41240 15250 ft 321 kts 29°
2026-04-16 22:56 -7.83382 -36.40201 14916 ft 319 kts 29°
2026-04-16 22:57 -7.81414 -36.39169 14582 ft 318 kts 29°
2026-04-16 22:57 -7.79457 -36.38142 14251 ft 317 kts 29°
2026-04-16 22:57 -7.77504 -36.37118 13918 ft 315 kts 29°
2026-04-16 22:57 -7.75559 -36.36098 13556 ft 315 kts 29°
2026-04-16 22:58 -7.73645 -36.35094 13201 ft 313 kts 29°
2026-04-16 22:58 -7.71716 -36.34083 12861 ft 311 kts 29°
2026-04-16 22:58 -7.69804 -36.33081 12522 ft 309 kts 29°
2026-04-16 22:58 -7.67901 -36.32084 12193 ft 307 kts 29°
2026-04-16 22:59 -7.66014 -36.31095 11874 ft 305 kts 28°
2026-04-16 22:59 -7.64140 -36.30113 11550 ft 303 kts 28°
2026-04-16 22:59 -7.62265 -36.29130 11232 ft 301 kts 29°
2026-04-16 22:59 -7.60410 -36.28158 10912 ft 300 kts 29°
2026-04-16 23:00 -7.58560 -36.27189 10594 ft 299 kts 28°
2026-04-16 23:00 -7.56718 -36.26224 10281 ft 298 kts 29°
2026-04-16 23:00 -7.54897 -36.25270 10100 ft 291 kts 29°
2026-04-16 23:00 -7.53121 -36.24340 9926 ft 285 kts 29°
2026-04-16 23:01 -7.51356 -36.23416 9614 ft 285 kts 29°
2026-04-16 23:01 -7.49602 -36.22498 9311 ft 283 kts 28°
2026-04-16 23:01 -7.47858 -36.21584 9025 ft 282 kts 28°
2026-04-16 23:01 -7.46124 -36.20676 8739 ft 280 kts 29°
2026-04-16 23:02 -7.44396 -36.19771 8443 ft 279 kts 28°
2026-04-16 23:02 -7.42690 -36.18878 8159 ft 278 kts 28°
2026-04-16 23:02 -7.40979 -36.17983 7879 ft 277 kts 29°
2026-04-16 23:02 -7.39269 -36.17088 7599 ft 276 kts 28°
2026-04-16 23:03 -7.37567 -36.16197 7318 ft 275 kts 28°
2026-04-16 23:03 -7.35871 -36.15309 7039 ft 274 kts 28°
2026-04-16 23:03 -7.34177 -36.14422 6746 ft 274 kts 28°
2026-04-16 23:03 -7.32499 -36.13544 6448 ft 276 kts 28°
2026-04-16 23:04 -7.30790 -36.12650 6153 ft 275 kts 28°
2026-04-16 23:04 -7.29090 -36.11761 5860 ft 274 kts 28°
2026-04-16 23:04 -7.27409 -36.10882 5697 ft 268 kts 28°
2026-04-16 23:04 -7.25776 -36.10029 5570 ft 261 kts 29°
2026-04-16 23:05 -7.24226 -36.09131 5452 ft 253 kts 36°
2026-04-16 23:05 -7.22828 -36.08136 5344 ft 245 kts 37°
2026-04-16 23:05 -7.21463 -36.07150 5263 ft 235 kts 37°
2026-04-16 23:05 -7.20169 -36.06225 5174 ft 223 kts 37°
2026-04-16 23:06 -7.18922 -36.05331 4958 ft 216 kts 40°
2026-04-16 23:06 -7.18070 -36.04163 4741 ft 202 kts 77°
2026-04-16 23:06 -7.18027 -36.02813 4535 ft 189 kts 103°
2026-04-16 23:06 -7.18518 -36.01642 4335 ft 181 kts 123°
2026-04-16 23:07 -7.19222 -36.00611 4132 ft 174 kts 125°
2026-04-16 23:07 -7.19898 -35.99659 3947 ft 160 kts 126°
2026-04-16 23:07 -7.20527 -35.98771 3714 ft 152 kts 126°
2026-04-16 23:07 -7.21134 -35.97912 3553 ft 153 kts 126°
2026-04-16 23:08 -7.21736 -35.97059 3491 ft 145 kts 126°
2026-04-16 23:08 -7.22335 -35.96213 3192 ft 148 kts 124°
2026-04-16 23:08 -7.22893 -35.95417 2995 ft 132 kts 124°
2026-04-16 23:08 -7.23406 -35.94684 2799 ft 124 kts 124°
2026-04-16 23:09 -7.23906 -35.93969 2648 ft 128 kts 124°
2026-04-16 23:09 -7.24429 -35.93221 2412 ft 133 kts 123°
2026-04-16 23:09 -7.24968 -35.92462 2208 ft 133 kts 124°
2026-04-16 23:09 -7.25502 -35.91694 2011 ft 134 kts 123°
2026-04-16 23:10 -7.26029 -35.90931 1825 ft 133 kts 124°
2026-04-16 23:10 -7.26564 -35.90177 1651 ft 131 kts 123°
2026-04-16 23:10 -7.26992 -35.89556 1628 ft 61 kts 125°
2026-04-16 23:10 -7.27146 -35.89338 1625 ft 26 kts 126°
2026-04-16 23:11 -7.27227 -35.89220 1625 ft 20 kts 123°
2026-04-16 23:11 -7.27302 -35.89110 1631 ft 16 kts 126°
2026-04-16 23:11 -7.27370 -35.89053 1631 ft 9 kts 155°
2026-04-16 23:11 -7.27384 -35.89017 1630 ft 4 kts 49°
2026-04-16 23:12 -7.27360 -35.89027 1628 ft 5 kts 308°
2026-04-16 23:12 -7.27335 -35.89062 1627 ft 8 kts 305°
2026-04-16 23:12 -7.27297 -35.89118 1634 ft 11 kts 304°
2026-04-16 23:12 -7.27245 -35.89194 1626 ft 15 kts 304°
2026-04-16 23:13 -7.27189 -35.89275 1629 ft 14 kts 305°
2026-04-16 23:13 -7.27137 -35.89351 1628 ft 13 kts 305°
2026-04-16 23:13 -7.27085 -35.89425 1624 ft 12 kts 305°
2026-04-16 23:13 -7.27042 -35.89469 1627 ft 7 kts 344°
2026-04-16 23:14 -7.27002 -35.89455 1629 ft 5 kts 32°
2026-04-16 23:14 -7.26982 -35.89442 1632 ft 1 kts 32°
2026-04-16 23:14 -7.26975 -35.89440 1624 ft 2 kts 19°
2026-04-16 23:14 -7.26956 -35.89432 1629 ft 3 kts 30°
2026-04-16 23:15 -7.26933 -35.89417 1628 ft 0 kts 36°